Regional Weather Roundup
Issued by NWS

Home | Current Version | Previous Version | Text Only | Print | Product List | Glossary Off
Versions: 1 2 3 4 5 6 7 8 9 10 11 12 13 14 15 16 17 18 19 20 21 22 23 24 25 26 27 28 29 30 31 32 33 34 35 36 37 38 39 40 41 42 43 44 45 46 47 48 49 50

000
ASUS43 KLOT 160110
RWRIL

ILLINOIS REGIONAL WEATHER ROUNDUP
NATIONAL WEATHER SERVICE CHICAGO/ROMEOVILLE IL
800 PM CDT TUE APR 15 2014

NOTE: "FAIR" INDICATES FEW OR NO CLOUDS BELOW 12,000 FEET WITH NO
SIGNIFICANT WEATHER AND/OR OBSTRUCTIONS TO VISIBILITY.

* THESE STATIONS ARE NOT UNDER NWS QUALITY CONTROL. THEY ALSO MAY NOT
  REPORT WEATHER SUCH AS PRECIPITATION OR FOG.

ILZ001-002-007-009-015-016-024-160200-
NORTHWEST ILLINOIS

CITY           SKY/WX    TMP DP  RH WIND       PRES   REMARKS
MOLINE         CLEAR     37  13  37 CALM      30.14R
STERLING*      CLEAR     36  16  44 W3        30.15R
SAVANNA*       CLEAR     38  12  34 SW5       30.14R WCI  34
$$

ILZ003-004-008-010-011-017-018-160200-
NORTH CENTRAL ILLINOIS

CITY           SKY/WX    TMP DP  RH WIND       PRES   REMARKS
ROCKFORD       PTCLDY    36  15  42 W3        30.16R
FREEPORT*      CLEAR     36  18  48 W5        30.15R WCI  32
ROCHELLE*      CLEAR     32  22  67 SW3       30.15R
DE KALB*       CLEAR     32  19  58 S3        30.15S
PERU*          CLEAR     37  19  46 CALM      30.16R
$$

ILZ005-006-012>014-019>023-160200-
NORTHEAST ILLINOIS

CITY           SKY/WX    TMP DP  RH WIND       PRES   REMARKS
CHICAGO-OHARE  MOCLDY    35  16  45 SW5       30.16R WCI  31
CHICAGO-MIDWAY MOCLDY    36  19  50 SW8       30.17R WCI  30
AURORA         CLEAR     34  20  56 S3        30.16R
LANSING*       PTCLDY    33  18  52 W3        30.18R
WAUKEGAN       MOCLDY    30  19  63 SE8       30.16R WCI  22
DUPAGE AIRPORT PTCLDY    32  19  58 CALM      30.15R
KANKAKEE*      PTCLDY    34  21  58 CALM      30.19R
WHEELING       PTCLDY    33  19  56 SE6       30.18R WCI  28
MORRIS*        CLEAR     37  16  43 CALM      30.17R
ROMEOVILLE*    PTCLDY    33  22  62 SW3       30.17R
NORTHERLY ISL    N/A     33  22  64 E8          N/A  WCI  26
$$

LMZ740>746-160200-
SOUTHERN LAKE MICHIGAN

STATION/POSITION SKY/WX   TEMP    WIND        PRES    VSBY  WAVE
                          AIR SEA DIR/SP/G                  HT/PER
                          (F)     (DEG/KT/KT) (MB)    (MI)  (FT/S)
WAUKEGAN HARBOR            31     150/ 18/ 20 1022.4S
HARRISON CRIB              32     130/ 11/ 14   N/A
BURNHAM HARBOR             33     110/  8/ 11   N/A
CALUMET HARBOR             34      90/  7/  8 1022.5S
MICHIGAN CITY              32      70/  4/  6   N/A
$$

ILZ025>027-034>036-040-047-049-050-058-095>099-160200-
WEST-CENTRAL ILLINOIS

CITY           SKY/WX    TMP DP  RH WIND       PRES   REMARKS
QUINCY         PTCLDY    42  19  39 S5        30.13F
GALESBURG*     CLEAR     36  23  58 CALM      30.14S
MACOMB*        CLEAR     39  28  65 CALM      30.16S
JACKSONVILLE*  CLEAR     42  18  38 CALM      30.17S
PITTSFIELD*    CLEAR     44  19  36 CALM      30.16S
$$

ILZ028>032-037-038-041>044-048-051>054-059>061-160200-
CENTRAL ILLINOIS

CITY           SKY/WX    TMP DP  RH WIND       PRES   REMARKS
PONTIAC        CLEAR     37  23  56 CALM      30.17S
BLOOMINGTON    CLEAR     36  15  42 W3        30.17S
DECATUR        CLEAR     41  17  38 CALM      30.18S
PEORIA         CLEAR     40  16  37 CALM      30.16S
LACON*         CLEAR     38  15  40 CALM      30.15F
LINCOLN*       CLEAR     40  19  43 CALM      30.18S
SPRINGFIELD    CLEAR     42  18  37 CALM      30.17F
TAYLORVILLE    CLEAR     39  21  48 CALM      30.18S
$$

ILZ033-039-045-046-055>057-062-063-160200-
EAST-CENTRAL ILLINOIS

CITY           SKY/WX    TMP DP  RH WIND       PRES   REMARKS
CHAMPAIGN      CLEAR     37  19  48 NW3       30.18S
RANTOUL*       CLEAR     38  24  57 CALM      30.19S
MATTOON        CLEAR     37  22  54 CALM      30.19R
PARIS*         CLEAR     35  27  72 CALM      30.21R
$$

ILZ079-100>102-160200-
SOUTHWEST ILLINOIS

CITY           SKY/WX    TMP DP  RH WIND       PRES   REMARKS
ALTON          CLEAR     43  18  36 SW6       30.17F
BELLEVILLE     CLEAR     42  23  46 E3        30.18S
CAHOKIA*       CLEAR     42  24  49 E7        30.17F
SPARTA*        CLEAR     41  28  60 NE5       30.19F
$$

ILZ064>066-069>071-074>076-080>082-084>086-088>090-092>094-160200-
SOUTH-CENTRAL ILLINOIS

CITY           SKY/WX    TMP DP  RH WIND       PRES   REMARKS
CARBONDALE     CLEAR     40  25  55 E7        30.20S
CAIRO*         CLEAR     45  27  49 NE7       30.21R
MARION         CLEAR     41  28  60 CALM      30.21S
MT. VERNON     CLEAR     37  18  44 CALM      30.21F
CENTRALIA*       N/A     39  22  49 CALM      30.20S
SALEM*         CLEAR     40  27  58 CALM      30.21R
METROPOLIS*    CLEAR     42  18  36 CALM      30.21R
$$

ILZ067-068-072-073-078-083-087-091-160200-
SOUTHEAST ILLINOIS

CITY           SKY/WX    TMP DP  RH WIND       PRES   REMARKS
FLORA*         CLEAR     39  21  48 CALM      30.22R
FAIRFIELD*     CLEAR     41  23  48 CALM      30.22R
HARRISBURG*    CLEAR     41  22  46 N3        30.24R
ROBINSON*      CLEAR     39  30  69 CALM      30.23R
CARMI*         CLEAR     41  29  61 N3        30.22R
$$

ABBREVIATIONS USED IN REMARKS
   TC - TEMPERATURE IN CELSIUS
  WCI - WIND CHILL INDEX
   HX - HEAT INDEX
  VSB - VISIBILITY
$$




USA.gov is the U.S. government's official web portal to all federal, state and local government web resources and services.